Location: *
(48.8489°N, 2.3218°E)
Time: 03:59:17
(UTC+00:00)

Cosmos 2098 Rocket - Pass Details

Date: 23 August 2019
Orbit: 368 x 1191 km, 82.9° (Epoch: 13 October)

Event Time Altitude Azimuth Distance (km) Brightness Sun altitude
Rises 19:34:55 0° 1° (N) 2,853 6.8 -7.4°
Reaches altitude 10° 19:37:11 10° 13° (NNE) 2,071 5.9 -7.7°
Maximum altitude 19:41:15 29° 74° (ENE) 1,366 4.4 -8.3°
Enters shadow 19:46:08 10° 133° (SE) 2,528 5.6 -9.0°
